TimeEST,TemperatureF,Dew PointF,Humidity,Sea Level PressureIn,VisibilityMPH,Wind Direction,Wind SpeedMPH,Gust SpeedMPH,PrecipitationIn,Events,Conditions,WindDirDegrees,DateUTC
12:15 AM,46.4,42.8,87,29.99,7.0,SSW,5.8,-,N/A,,Overcast,200,2013-02-23 05:15:00
12:55 AM,46.4,42.8,87,29.98,7.0,Calm,Calm,-,N/A,,Overcast,0,2013-02-23 05:55:00
1:15 AM,46.4,42.8,87,29.97,10.0,Calm,Calm,-,N/A,,Overcast,0,2013-02-23 06:15:00
1:35 AM,46.4,42.8,87,29.98,10.0,SW,4.6,-,N/A,,Overcast,230,2013-02-23 06:35:00
1:55 AM,46.4,46.4,100,29.98,2.5,SSW,5.8,-,N/A,,Overcast,210,2013-02-23 06:55:00
2:15 AM,44.6,44.6,100,29.96,2.0,South,5.8,-,N/A,,Overcast,190,2013-02-23 07:15:00
2:35 AM,44.6,44.6,100,29.99,2.0,SW,3.5,-,N/A,,Overcast,220,2013-02-23 07:35:00
2:55 AM,44.6,44.6,100,29.96,2.0,SSW,4.6,-,N/A,,Overcast,200,2013-02-23 07:55:00
3:15 AM,44.6,44.6,100,29.97,3.0,SSW,4.6,-,N/A,,Overcast,210,2013-02-23 08:15:00
3:35 AM,44.6,44.6,100,29.98,3.0,WSW,4.6,-,N/A,,Overcast,240,2013-02-23 08:35:00
3:55 AM,44.6,44.6,100,29.98,7.0,SW,9.2,-,N/A,,Overcast,230,2013-02-23 08:55:00
4:15 AM,44.6,44.6,100,29.96,5.0,SW,6.9,-,N/A,,Overcast,230,2013-02-23 09:15:00
4:35 AM,44.6,44.6,100,29.96,10.0,SW,5.8,-,N/A,,Overcast,230,2013-02-23 09:35:00
4:55 AM,44.6,44.6,100,29.96,7.0,South,3.5,-,N/A,,Overcast,190,2013-02-23 09:55:00
5:15 AM,44.6,44.6,100,29.95,5.0,Calm,Calm,-,N/A,,Overcast,0,2013-02-23 10:15:00
5:35 AM,44.6,44.6,100,29.95,5.0,Calm,Calm,-,N/A,,Overcast,0,2013-02-23 10:35:00
5:55 AM,44.6,44.6,100,29.94,5.0,Calm,Calm,-,N/A,,Overcast,0,2013-02-23 10:55:00
6:15 AM,44.6,44.6,100,29.93,7.0,West,4.6,-,N/A,,Overcast,270,2013-02-23 11:15:00
6:35 AM,44.6,44.6,100,29.93,7.0,WSW,3.5,-,N/A,,Overcast,250,2013-02-23 11:35:00
6:55 AM,44.6,44.6,100,29.94,7.0,West,5.8,-,N/A,,Overcast,270,2013-02-23 11:55:00
7:15 AM,44.6,44.6,100,29.94,7.0,WSW,5.8,-,N/A,,Overcast,240,2013-02-23 12:15:00
7:35 AM,44.6,44.6,100,29.93,5.0,WSW,3.5,-,N/A,,Overcast,240,2013-02-23 12:35:00
7:55 AM,44.6,44.6,100,29.92,7.0,WSW,6.9,-,N/A,,Overcast,240,2013-02-23 12:55:00
8:15 AM,44.6,44.6,100,29.92,7.0,SW,5.8,-,N/A,,Overcast,230,2013-02-23 13:15:00
8:35 AM,46.4,46.4,100,29.93,7.0,SW,5.8,-,N/A,,Overcast,230,2013-02-23 13:35:00
8:55 AM,46.4,46.4,100,29.93,7.0,WSW,5.8,-,N/A,,Overcast,250,2013-02-23 13:55:00
9:15 AM,46.4,46.4,100,29.94,7.0,West,6.9,-,N/A,,Overcast,270,2013-02-23 14:15:00
9:35 AM,44.6,44.6,100,29.93,10.0,West,5.8,-,N/A,,Overcast,280,2013-02-23 14:35:00
9:55 AM,46.4,46.4,100,29.94,7.0,West,5.8,-,N/A,,Overcast,260,2013-02-23 14:55:00
10:15 AM,46.4,46.4,100,29.93,10.0,WSW,3.5,-,N/A,,Overcast,240,2013-02-23 15:15:00
10:35 AM,46.4,46.4,100,29.93,10.0,SW,3.5,-,N/A,,Mostly Cloudy,230,2013-02-23 15:35:00
10:55 AM,50.0,46.4,87,29.92,10.0,Calm,Calm,-,N/A,,Overcast,0,2013-02-23 15:55:00
11:15 AM,50.0,44.6,82,29.92,10.0,Calm,Calm,-,N/A,,Scattered Clouds,0,2013-02-23 16:15:00
11:35 AM,51.8,44.6,76,29.91,7.0,Calm,Calm,-,N/A,,Scattered Clouds,0,2013-02-23 16:35:00
11:55 AM,51.8,44.6,76,29.91,10.0,WNW,4.6,-,N/A,,Clear,300,2013-02-23 16:55:00
12:15 PM,53.6,42.8,67,29.91,10.0,Calm,Calm,-,N/A,,Scattered Clouds,0,2013-02-23 17:15:00
12:35 PM,55.4,44.6,67,29.90,10.0,Calm,Calm,-,N/A,,Scattered Clouds,0,2013-02-23 17:35:00
1:15 PM,55.4,42.8,63,29.88,10.0,NE,4.6,-,N/A,,Overcast,50,2013-02-23 18:15:00
1:35 PM,55.4,42.8,63,29.87,10.0,Calm,Calm,-,N/A,,Mostly Cloudy,0,2013-02-23 18:35:00
1:55 PM,59.0,42.8,55,29.85,10.0,Calm,Calm,-,N/A,,Mostly Cloudy,0,2013-02-23 18:55:00
2:15 PM,55.4,44.6,67,29.85,10.0,South,4.6,-,N/A,,Overcast,180,2013-02-23 19:15:00
2:35 PM,55.4,44.6,67,29.86,10.0,South,3.5,-,N/A,,Overcast,170,2013-02-23 19:35:00
2:55 PM,57.2,44.6,63,29.85,10.0,Calm,Calm,-,N/A,,Overcast,0,2013-02-23 19:55:00
3:15 PM,55.4,42.8,63,29.85,10.0,Calm,Calm,-,N/A,,Overcast,0,2013-02-23 20:15:00
3:35 PM,55.4,44.6,67,29.86,10.0,SSW,4.6,-,N/A,,Mostly Cloudy,200,2013-02-23 20:35:00
3:55 PM,55.4,44.6,67,29.85,10.0,Calm,Calm,-,N/A,,Mostly Cloudy,0,2013-02-23 20:55:00
4:15 PM,53.6,44.6,72,29.85,10.0,Calm,Calm,-,N/A,,Overcast,0,2013-02-23 21:15:00
4:35 PM,53.6,44.6,72,29.85,10.0,Calm,Calm,-,N/A,,Mostly Cloudy,0,2013-02-23 21:35:00
4:55 PM,53.6,44.6,72,29.85,10.0,SSE,3.5,-,N/A,,Mostly Cloudy,160,2013-02-23 21:55:00
5:15 PM,53.6,44.6,72,29.84,10.0,SSE,4.6,-,N/A,,Overcast,160,2013-02-23 22:15:00
5:35 PM,51.8,44.6,76,29.84,10.0,Calm,Calm,-,N/A,,Overcast,0,2013-02-23 22:35:00
5:55 PM,51.8,44.6,76,29.84,10.0,Calm,Calm,-,N/A,,Overcast,0,2013-02-23 22:55:00
6:15 PM,51.8,44.6,76,29.84,10.0,SSW,3.5,-,N/A,,Overcast,210,2013-02-23 23:15:00
6:35 PM,51.8,41.0,67,29.84,10.0,Calm,Calm,-,N/A,,Overcast,0,2013-02-23 23:35:00
6:55 PM,51.8,41.0,67,29.84,10.0,Calm,Calm,-,N/A,,Overcast,0,2013-02-23 23:55:00
7:15 PM,50.0,39.2,66,29.85,10.0,Calm,Calm,-,N/A,,Mostly Cloudy,0,2013-02-24 00:15:00
7:35 PM,50.0,39.2,66,29.84,10.0,Calm,Calm,-,N/A,,Scattered Clouds,0,2013-02-24 00:35:00
7:55 PM,46.4,39.2,76,29.85,10.0,Calm,Calm,-,N/A,,Clear,0,2013-02-24 00:55:00
8:15 PM,46.4,37.4,71,29.84,10.0,North,3.5,-,N/A,,Clear,360,2013-02-24 01:15:00
8:35 PM,46.4,37.4,71,29.84,10.0,North,3.5,-,N/A,,Clear,350,2013-02-24 01:35:00
8:55 PM,44.6,37.4,76,29.84,10.0,NNW,5.8,-,N/A,,Clear,340,2013-02-24 01:55:00
9:15 PM,44.6,37.4,76,29.84,10.0,NNW,3.5,-,N/A,,Clear,330,2013-02-24 02:15:00
9:35 PM,44.6,35.6,71,29.84,10.0,Calm,Calm,-,N/A,,Clear,0,2013-02-24 02:35:00
10:15 PM,42.8,37.4,81,29.87,10.0,NW,9.2,-,N/A,,Overcast,320,2013-02-24 03:15:00
10:35 PM,42.8,35.6,76,29.87,10.0,NW,6.9,-,N/A,,Mostly Cloudy,310,2013-02-24 03:35:00
11:15 PM,41.0,35.6,81,29.87,10.0,NW,4.6,-,N/A,,Scattered Clouds,310,2013-02-24 04:15:00
11:35 PM,41.0,35.6,81,29.88,10.0,NNW,4.6,-,N/A,,Overcast,330,2013-02-24 04:35:00
11:55 PM,41.0,35.6,81,29.88,10.0,NNW,5.8,-,N/A,,Overcast,330,2013-02-24 04:55:00